Mar del Plata, Argentina

9:10 PM America en Diciembre 11, 2017 (GMT +0000)
Mar Del Plata International

Tiempo Historia de SAZM - Diciembre, 2017

Change the Weather History Date:

Jueves, Diciembre 7, 2017

  Actual Average Record
Temperature  
Temperatura media 58 ° F -  
Temperatura máxima 63 ° F 77 ° F 85 ° F (2013)
Temperatura mínima 53 ° F 56 ° F 33 ° F (2005)
Degree Days  
Grados día de calefacción 7    
Growing Degree Days 8 (Base 50)    
Moisture  
Punto de rocío 53 ° F    
Average Humidity 79    
Maximum Humidity 94    
Minimum Humidity 62    
Precipitación  
Precipitación 0.00 pul 0.14 pul - ()
Presión al nivel del mar  
Presión al nivel del mar 29.84 pul    
Viento  
Velocidad del viento 9 mph ()    
Velocidad máxima del viento 14 mph    
Max Gust Speed -    
Visibilidad 4.7 Millas    
Eventos      
Averages and records for this station are not official NWS values.
T = Trace of Precipitation, MM = Missing Value Source: Averaged Metar Reports

Daily Weather History Graph

Daily Weather History Graph

Search for Another Location

Airport or City:

Trip Planner

Search our weather history database for the weather conditions in past years. The results will help you decide how hot, cold, wet, or windy it might be!

Date:

Astronomía

Dec. 07, 2017 Salida Puesta
Hora real 5:21 AM -03 8:03 PM -03
Crepúsculo civil 4:50 AM -03 8:34 PM -03
Crepúsculo náutico 4:11 AM -03 9:13 PM -03
Crepúsculo astronómico 3:27 AM -03 9:56 PM -03
Luna 11:54 PM -03 (12/7) 9:34 AM -03 (12/7)
Horas de luz 15h 44m
Horas de luz
14h 41m
Gibosa menguante, 79% of the Moon is Illuminated
Dic 7
Gibosa menguante
Dic 10
Cuarto menguante
Dic 18
Nueva
Dic 26
Cuarto creciente
Ene 1
Luna llena

Hourly Weather History & Observations

Hora (-03) Temp. Punto de rocío Humedad Presión Visibilidad Wind Dir Velocidad del viento Velocidad de ráfagas Precip Eventos Condiciones
12:00 AM 64 ° F 60 ° F 82% 29.83 pul 6 mi ONO 6.9 mph - -   Parcialmente nublado
12:00 AM 64.4 ° F 59.0 ° F 83% 29.83 pul - Oeste 5.8 mph - N/A   Despejado
2:00 AM 64.4 ° F 59.0 ° F 83% 29.83 pul - SO 5.8 mph - N/A   Despejado
3:00 AM 59 ° F 56 ° F 88% 29.83 pul 6 mi SSO 11.5 mph - -   Parcialmente nublado
4:00 AM 57.2 ° F 55.4 ° F 94% 29.83 pul 6.2 mi SSO 12.7 mph - N/A   Nublado
5:00 AM 57.2 ° F 55.4 ° F 94% 29.83 pul 3.7 mi SSO 11.5 mph - N/A   Nublado
6:00 AM 56 ° F 53 ° F 88% 29.88 pul 3 mi SSO 9.2 mph - -   Nublado
6:00 AM 55.4 ° F 53.6 ° F 94% 29.86 pul 2.5 mi Sur 11.5 mph - N/A   Nublado
7:00 AM 55.4 ° F 53.6 ° F 94% 29.89 pul 2.5 mi Sur 12.7 mph - N/A   Nublado
8:00 AM 57.2 ° F 51.8 ° F 82% 29.89 pul 3.1 mi Sur 13.8 mph - N/A   Nublado
9:00 AM 58 ° F 51 ° F 71% 29.91 pul 4 mi Sur 12.7 mph - -   Neblina
9:00 AM 59.0 ° F 51.8 ° F 77% 29.89 pul 4.3 mi Sur 12.7 mph - N/A   Muy nublado
10:00 AM 59.0 ° F 51.8 ° F 77% 29.89 pul 4.3 mi SSE 12.7 mph - N/A   Muy nublado
11:00 AM 60.8 ° F 51.8 ° F 72% 29.89 pul 4.3 mi SSE 12.7 mph - N/A   Nubes dispersas
12:00 PM 62 ° F 53 ° F 63% 29.88 pul 4 mi SE 11.5 mph - -   Neblina
12:00 PM 62.6 ° F 53.6 ° F 72% 29.89 pul 4.3 mi SE 11.5 mph - N/A   Parcialmente nublado
1:00 PM 62.6 ° F 51.8 ° F 68% 29.86 pul 5.0 mi SE 11.5 mph - N/A   Parcialmente nublado
2:00 PM 60.8 ° F 53.6 ° F 77% 29.86 pul 5.6 mi SE 12.7 mph - N/A   Desconocido
3:00 PM 62 ° F 52 ° F 62% 29.86 pul 6 mi SE 11.5 mph - -   Neblina
3:00 PM 62.6 ° F 51.8 ° F 68% 29.86 pul 5.6 mi SE 11.5 mph - N/A   Desconocido
4:00 PM 62.6 ° F 51.8 ° F 68% 29.83 pul 5.6 mi SE 11.5 mph - N/A   Desconocido
5:00 PM 60.8 ° F 51.8 ° F 72% 29.83 pul 5.6 mi ESE 9.2 mph - N/A   Desconocido
6:00 PM 60 ° F 51 ° F 64% 29.81 pul 6 mi ESE 10.4 mph - -   Neblina
6:00 PM 60.8 ° F 51.8 ° F 72% 29.80 pul 5.6 mi ESE 10.4 mph - N/A   Desconocido
7:00 PM 59.0 ° F 50.0 ° F 72% 29.80 pul 5.6 mi Este 9.2 mph - N/A   Desconocido
8:00 PM 55.4 ° F 50.0 ° F 82% 29.77 pul 5.6 mi ENE 6.9 mph - N/A   Desconocido
9:00 PM 54 ° F 51 ° F 86% 29.80 pul 4 mi ENE 4.6 mph - -   Neblina
9:00 PM 53.6 ° F 51.8 ° F 94% 29.77 pul 4.3 mi ENE 4.6 mph - N/A   Desconocido
10:00 PM 53.6 ° F 50.0 ° F 88% 29.80 pul 4.3 mi Norte 2.3 mph - N/A   Desconocido
11:00 PM 53.6 ° F 50.0 ° F 88% 29.80 pul 4.3 mi NNE 2.3 mph - N/A   Desconocido